一网星座-0667星 (ONEWEB-0667)

导读 | 豆包AI

ONEWEB-0667是英国OneWeb星座的低轨宽带卫星,于2023年3月9日由SpaceX猎鹰9号火箭,在美国佛罗里达州卡纳维拉尔角航天站发射升空,属于该公司OneWeb 17任务中的一颗卫星。该任务总共成功部署40颗卫星,发射后OneWeb在轨卫星数量达到582颗,完成了第一代全球组网的绝大部分建设。该卫星旨在提供全球高速宽带互联网服务,覆盖偏远地区、海上与航空通信等场景,为应急通信提供支撑。目前OneWeb已被欧洲通信卫星集团收购,成为可与美国星链竞争的全球低轨卫星通信网络,ONEWEB-0667是其全球组网过程中的重要一环。

Basic Information
目录编号:
55827
目录名称:
ONEWEB-0667
国际标识:
2023-029AH
轨道中心:
EARTH
卫星名称:
一网星座-0667星
卫星全名:
一网星座-0667星 (ONEWEB-0667)
卫星状态:
在轨 (已飞行1150 天)
发射日期:
2023-03-09 UTC
国别 :
英国 (GB)
星等 :
--
Orbit Information
数据来源 国际轨道数据 AOE轨道数据
星历时间 2026-05-02T07:12:45+0800
12小时前
查看轨道信息
2026-04-27T23:00:00+0800
4天前
查看轨道信息
半长轴 7559.919km 7559.915km
偏心率 0.0001983 0.0001995
轨道倾角 87.915° 87.916°
近地点辐角 92.676° 94.647°
升交点赤经 283.649° 284.518°
平近点角 267.461° 151.247°
近地点 1180.282km 1180.269km
远地点 1183.282km 1183.287km
周期 109.027分钟 109.027分钟
每日圈数 13.207697 13.207708
Detailed Information
平衡模式:
三轴稳定
覆盖范围:
全球
运营商:
一网卫星公司
运营商所在国:
英国
制造商(研发单位):
一网卫星公司
制造商所在国:
英国
使用方式:
暂无
Satellite Introduction
OneWeb卫星网络由648颗重约125公斤的微型卫星组成,运行在1200公里的轨道上。 每颗卫星都能够提供至少每秒8千兆位的吞吐量,以使用其高吞吐量的Ku频段有效载荷为家庭和移动平台提供互联网接入。该卫星仍在工作。
2D Orbit Map
3D Orbit Map
Orbit Altitude Analysis Chart
Orbit Inclination Analysis Chart
Orbit Comprehensive Analysis Chart
View Comprehensive Chart